« Back
NWS Peachtree City, Ga » Text Product » GA Regional Weather Roundup


Printer-friendly Version
Current Version              Previous Versions:   1  2  3  4  5  6  7  8  9  

Regional Weather Roundup

463
ASUS42 KFFC 240903
RWRGA
WEATHER ROUNDUP FOR GEORGIA
NATIONAL WEATHER SERVICE PEACHTREE CITY GA
500 AM EDT THU JUL 24 2014

NOTE: "FAIR" INDICATES FEW OR NO CLOUDS BELOW 12,000 FEET WITH NO
SIGNIFICANT WEATHER AND/OR OBSTRUCTIONS TO VISIBILITY.

* = USE WITH CAUTION. THE STATIONS MARKED WITH AN ASTERISK MAY NOT
REPORT WEATHER SUCH AS PRECIPITATION, FOG, OR THUNDER AND ARE NOT
QUALITY CONTROLLED BY NWS.

THE REMARK "TC" DENOTES TEMPERATURE READING IN DEGREES CELSIUS.

GAZ001>058-241000-
NORTH GEORGIA

CITY           SKY/WX    TMP DP  RH WIND       PRES   REMARKS
ATLANTA        PTCLDY    72  69  90 W3        29.97F
ATHENS         CLEAR     72  70  93 CALM      29.95F
CHAMBLEE       CLEAR     72  69  90 W3        29.98R
PEACHTREE CITY CLEAR     70  69  97 S3        29.99R
ROME           CLOUDY    72  71  97 SW6       29.96S FOG
WEST ATLANTA   CLEAR     73  70  90 CALM      29.97S
GAINESVILLE    CLEAR     73  71  93 W7        30.00R
CARTERSVILLE   PTCLDY    71  69  93 CALM      29.97S


CITY           SKY/WX    TMP DP  RH WIND       PRES   REMARKS
DALTON*        CLOUDY    70  70 100 CALM      29.97R FOG
$$

GAZ059>098-102>109-241000-
CENTRAL GEORGIA

CITY           SKY/WX    TMP DP  RH WIND       PRES   REMARKS
AUGUSTA-BUSH   CLEAR     75  71  87 SW7       29.93S
AUGUSTA-DANIEL CLEAR     77  72  84 SW3       29.95S
COLUMBUS       PTCLDY    75  72  90 W3        29.98R
MACON          CLEAR     73  73 100 SW3       29.97S
ROBINS AFB     CLEAR     73  73  97 SW2       29.97S


CITY           SKY/WX    TMP DP  RH WIND       PRES   REMARKS
LAGRANGE*      CLEAR     74  74  98 CALM      29.98S
SYLVANIA*      CLEAR     76  76 100 CALM      29.97S FOG
MILLEDGEVILLE* CLEAR     57  57 100 CALM      29.96S
$$

GAZ099>101-110>166-241000-
SOUTH GEORGIA

CITY           SKY/WX    TMP DP  RH WIND       PRES   REMARKS
SAVANNAH       CLEAR     78  74  87 SW5       29.97S
VALDOSTA       CLEAR     75  70  84 CALM      30.00S
ALMA           CLEAR     73  71  93 S3        29.99R
ST SIMONS      CLEAR     78  74  87 W7        29.98S
FT STEWART     CLEAR     77  73  90 SW6       29.97R
ALBANY         CLEAR     74  72  93 CALM      30.01S
HUNTER AFB     CLEAR     77  76  94 SW6       29.95S
MOODY AFB      CLEAR     76  76 100 W6        29.99S
BRUNSWICK      CLEAR     79  72  78 CALM      29.99S


CITY           SKY/WX    TMP DP  RH WIND       PRES   REMARKS
BAINBRIDGE*    CLEAR     75  73  94 CALM      30.00R FOG
MOULTRIE*      CLEAR     73  73 100 CALM      30.01R
VIDALIA*         N/A     73  72  94 SW5       29.99R
WAYCROSS*      CLEAR     76  75  96 S3        29.99S
DOUGLAS*       CLEAR     73  72  94 SW5       30.01R
$$



USA.gov is the U.S. government's official web portal to all federal, state and local government web resources and services.